Location: Diebersbach
(48.5163°N, 8.0558°E)
Time: 21:51:17
(UTC+00:00)

USA 229 - Pass Details

Date: 29 October 2021
Orbit: 946 x 1266 km, 63.4° (Epoch: 25 November)

Event Time Altitude Azimuth Distance (km) Brightness Sun altitude
Rises 19:14:09 0° 262° (W) 3,697 7.5 -30.4°
Reaches altitude 10° 19:16:57 10° 272° (W) 2,788 6.7 -30.8°
Maximum altitude 19:22:49 33° 335° (NNW) 1,705 5.0 -31.8°
Enters shadow 19:25:51 24° 17° (NNE) 2,100 5.2 -32.3°
